Regional Weather Roundup
Issued by NWS

Home | Current Version | Previous Version | Graphics & Text | Print | Product List | Glossary On
Versions: 1 2 3 4 5 6 7 8 9 10 11 12 13 14 15 16 17 18 19 20 21 22 23 24 25 26 27 28 29 30 31 32 33 34 35 36 37 38 39 40 41 42 43 44 45 46 47 48 49 50
000
ASUS43 KOAX 261102
RWRNE

WEATHER ROUNDUP FOR NEBRASKA
NATIONAL WEATHER SERVICE OMAHA NE
600 AM CDT TUE MAY 26 2015

NOTES: SATELLITE DATA IS BEING USED TO AUGMENT CLOUD COVER ABOVE
       12000 FEET.
       "FAIR" INDICATES FEW OR NO CLOUDS BELOW 12,000 FEET WITH NO
       SIGNIFICANT WEATHER AND/OR OBSTRUCTIONS TO VISIBILITY.

  * THESE STATIONS DO NOT REPORT WEATHER SUCH AS RAIN...SNOW OR FOG.

NEZ001>004-019>022-054>056-261200-
NEBRASKA PANHANDLE

CITY           SKY/WX    TMP DP  RH WIND       PRES   REMARKS
SCOTTSBLUFF    CLOUDY    47  47 100 W3        29.98R
ALLIANCE       CLOUDY    51  50  96 NW6       29.96R
CHADRON        CLOUDY    54  53  97 N3        29.96R
SIDNEY         CLEAR     45  44  97 NW9       29.98R
$$

NEZ057>060-069>072-079>082-261200-
SOUTHWEST NEBRASKA

CITY           SKY/WX    TMP DP  RH WIND       PRES   REMARKS
NORTH PLATTE   CLOUDY    54  52  93 NW10      29.91R
IMPERIAL       PTCLDY    50  48  93 W7        29.92S
LEXINGTON      PTCLDY    55  54  95 NW12      29.85R
MCCOOK         MOCLDY    51  49  92 W7        29.89R
$$

NEZ005>010-023>029-035>040-094-261200-
NORTH CENTRAL NEBRASKA

CITY           SKY/WX    TMP DP  RH WIND       PRES   REMARKS
VALENTINE      MOCLDY    53  49  86 N9        29.92R
AINSWORTH      CLOUDY    51  50  96 N8        29.90S
BROKEN BOW     MOCLDY    55  51  86 N12       29.86R
ORD            CLOUDY    56  52  86 NW12      29.82S
$$

NEZ041-046>049-061>064-073>077-083>087-261200-
SOUTH CENTRAL NEBRASKA

CITY           SKY/WX    TMP DP  RH WIND       PRES   REMARKS
GRAND ISLAND   CLOUDY    57  54  89 NW10      29.78R
HASTINGS       CLOUDY    57  54  89 NW12      29.78R
KEARNEY *      CLOUDY    57  55  94 NW12      29.82R
$$

NEZ011>018-030>034-042>045-261200-
NORTHEAST NEBRASKA

CITY           SKY/WX    TMP DP  RH WIND       PRES   REMARKS
NORFOLK        CLOUDY    57  56  96 NW3       29.78S
BLAIR          CLOUDY    60  56  88 S5        29.75F
COLUMBUS *     CLOUDY   N/A N/A N/A MISG        N/A
FREMONT        CLOUDY    61  58  91 CALM      29.76S
TEKAMAH        CLOUDY    61  58  90 SE6       29.75F
$$

NEZ050>053-065>068-078-088>093-261200-
SOUTHEAST NEBRASKA

CITY           SKY/WX    TMP DP  RH WIND       PRES   REMARKS
LINCOLN        CLOUDY    61  58  90 S8        29.74F
OMAHA EPPLEY   CLOUDY    61  59  93 SE8       29.75F
FALLS CITY     LGT RAIN  60  59  96 W7        29.77R
NEBRASKA CITY  CLOUDY    59  59 100 S8        29.75S
PLATTSMOUTH    CLOUDY    60  57  92 SE6       29.75S
$$

NEZ044-045-051>053-067-261200-
OMAHA AREA

CITY           SKY/WX    TMP DP  RH WIND       PRES   REMARKS
OMAHA EPPLEY   CLOUDY    61  59  93 SE8       29.75F
BLAIR          CLOUDY    60  56  88 S5        29.75F
FREMONT        CLOUDY    61  58  91 CALM      29.76S
OFFUTT AFB     CLOUDY    59  58  96 E3        29.75S
PLATTSMOUTH    CLOUDY    60  57  92 SE6       29.75S
WAHOO          FAIR      59  57  93 SE3       29.75F
$$


USA.gov is the U.S. government's official web portal to all federal, state and local government web resources and services.